Location: Frankfurt+(oder)
(51.7984°N, 12.2168°E)
Time: 05:55:39
(UTC+01:00)

ISS - Pass Details

Date: 11 January 2018
Orbit: 402 x 407 km, 51.6° (Epoch: 20 January)

Event Time Altitude Azimuth Distance (km) Brightness Sun altitude
Exits shadow 07:14:07 - 264° (W) 1,513 -1.5 -8.9°
Reaches altitude 10° 07:14:16 10° 262° (W) 1,467 -1.5 -8.9°
Maximum altitude 07:16:37 18° 216° (SW) 1,064 -1.8 -8.6°
Drops below altitude 10° 07:18:58 10° 170° (S) 1,463 -0.5 -8.2°
Sets 07:21:27 0° 151° (SSE) 2,320 1.0 -7.9°
